When you browse on this site, cookies collect data to enhance your experience and personalize the content and advertising you see.
Visit our Privacy Policy to learn more. By continuing to use the site, you agree to this use of cookies and data.
  • In Switzerland
  • List of Countries
  • For 7 days
  • Water Temperature
  • Weather Map
  • Weather Widgets
  • user-avatar
    Login

    Hourly Weather Chamonix

    Today, 4 June, Thursday

    Time Temperature Precipitation Wind Pressure Humidity
    00:00 +11°C° 0 mm 1 mps 644 mmHg 91%
    01:00 +11°C° 0.1 mm 1 mps 643 mmHg 91%
    02:00 +10°C° 0.1 mm 1 mps 643 mmHg 92%
    03:00 +10°C° 0.1 mm 1 mps 642 mmHg 92%
    04:00 +10°C° 0.7 mm 1 mps 642 mmHg 93%
    05:00 +10°C° 0.7 mm 1 mps 642 mmHg 93%
    06:00 +11°C° 0.7 mm 1 mps 642 mmHg 93%
    07:00 +11°C° 1.5 mm 1 mps 642 mmHg 94%
    08:00 +11°C° 1.5 mm 1 mps 642 mmHg 95%
    09:00 +11°C° 1.5 mm 1 mps 642 mmHg 95%
    10:00 +12°C° 0.8 mm 1 mps 642 mmHg 93%
    11:00 +12°C° 0.8 mm 1 mps 642 mmHg 90%
    12:00 +13°C° 0.8 mm 1 mps 642 mmHg 87%
    13:00 +12°C° 1.5 mm 1 mps 641 mmHg 90%
    14:00 +12°C° 1.5 mm 1 mps 640 mmHg 93%
    15:00 +10°C° 1.5 mm 2 mps 640 mmHg 96%
    16:00 +10°C° 0.9 mm 2 mps 640 mmHg 95%
    17:00 +10°C° 0.9 mm 1 mps 640 mmHg 94%
    18:00 +10°C° 0.9 mm 1 mps 640 mmHg 92%
    19:00 +9°C° 0.3 mm 1 mps 640 mmHg 93%
    20:00 +9°C° 0.3 mm 1 mps 640 mmHg 93%
    21:00 +8°C° 0.3 mm 1 mps 640 mmHg 94%
    22:00 +8°C° 0.4 mm 1 mps 640 mmHg 95%
    23:00 +8°C° 0.4 mm 1 mps 640 mmHg 97%

    Tomorrow, 5 June, Friday

    Time Temperature Precipitation Wind Pressure Humidity
    00:00 +8°C° 0.4 mm 1 mps 641 mmHg 98%
    01:00 +7°C° 0.4 mm 1 mps 641 mmHg 98%
    02:00 +7°C° 0.4 mm 1 mps 640 mmHg 98%
    03:00 +7°C° 0.4 mm 1 mps 640 mmHg 98%
    04:00 +6°C° 0.4 mm 2 mps 641 mmHg 98%
    05:00 +6°C° 0.4 mm 2 mps 641 mmHg 97%
    06:00 +7°C° 0.4 mm 2 mps 641 mmHg 97%
    07:00 +7°C° 0.3 mm 2 mps 642 mmHg 95%
    08:00 +8°C° 0.3 mm 2 mps 642 mmHg 93%
    09:00 +8°C° 0.3 mm 2 mps 643 mmHg 90%
    10:00 +9°C° 0.3 mm 2 mps 643 mmHg 87%
    11:00 +10°C° 0.3 mm 2 mps 643 mmHg 83%
    12:00 +12°C° 0.3 mm 2 mps 644 mmHg 79%
    13:00 +12°C° 0.1 mm 2 mps 644 mmHg 79%
    14:00 +10°C° 0.1 mm 2 mps 644 mmHg 79%
    15:00 +10°C° 0.1 mm 2 mps 644 mmHg 78%
    16:00 +9°C° 0.3 mm 2 mps 644 mmHg 84%
    17:00 +8°C° 0.3 mm 2 mps 644 mmHg 90%
    18:00 +9°C° 0.3 mm 1 mps 644 mmHg 96%
    19:00 +9°C° 0.2 mm 1 mps 645 mmHg 96%
    20:00 +9°C° 0.2 mm 1 mps 645 mmHg 96%
    21:00 +8°C° 0.2 mm 1 mps 645 mmHg 96%
    22:00 +8°C° 0 mm 1 mps 645 mmHg 95%
    23:00 +8°C° 0 mm 1 mps 645 mmHg 95%

    Day after tomorrow, 6 June, Saturday

    Time Temperature Precipitation Wind Pressure Humidity
    00:00 +8°C° 0 mm 1 mps 645 mmHg 94%
    01:00 +8°C° 0 mm 1 mps 645 mmHg 94%
    02:00 +8°C° 0 mm 1 mps 645 mmHg 94%
    03:00 +8°C° 0 mm 1 mps 646 mmHg 93%
    04:00 +9°C° 0 mm 1 mps 646 mmHg 93%
    05:00 +9°C° 0 mm 1 mps 646 mmHg 93%
    06:00 +10°C° 0 mm 1 mps 646 mmHg 93%
    07:00 +11°C° 0.1 mm 1 mps 647 mmHg 89%
    08:00 +12°C° 0.1 mm 1 mps 647 mmHg 86%
    09:00 +13°C° 0.1 mm 1 mps 647 mmHg 82%
    10:00 +14°C° 0.2 mm 2 mps 647 mmHg 77%
    11:00 +15°C° 0.2 mm 2 mps 648 mmHg 73%
    12:00 +16°C° 0.2 mm 2 mps 648 mmHg 68%
    13:00 +16°C° 0.4 mm 2 mps 647 mmHg 68%
    14:00 +16°C° 0.4 mm 2 mps 647 mmHg 68%
    15:00 +16°C° 0.4 mm 2 mps 647 mmHg 69%
    16:00 +15°C° 0.6 mm 2 mps 647 mmHg 75%
    17:00 +14°C° 0.6 mm 1 mps 647 mmHg 82%
    18:00 +13°C° 0.6 mm 1 mps 647 mmHg 89%
    19:00 +12°C° 1.4 mm 1 mps 647 mmHg 91%
    20:00 +11°C° 1.4 mm 1 mps 647 mmHg 94%
    21:00 +10°C° 1.4 mm 1 mps 647 mmHg 97%
    22:00 +10°C° 0.6 mm 1 mps 647 mmHg 97%
    23:00 +10°C° 0.6 mm 1 mps 647 mmHg 97%

    7 June, Sunday

    Time Temperature Precipitation Wind Pressure Humidity
    00:00 +10°C° 0.6 mm 1 mps 647 mmHg 97%
    01:00 +10°C° 0.3 mm 1 mps 647 mmHg 97%
    02:00 +10°C° 0.3 mm 1 mps 647 mmHg 97%
    03:00 +10°C° 0.3 mm 1 mps 646 mmHg 98%
    04:00 +10°C° 0.2 mm 1 mps 647 mmHg 97%
    05:00 +10°C° 0.2 mm 1 mps 647 mmHg 96%
    06:00 +10°C° 0.2 mm 1 mps 647 mmHg 96%
    07:00 +11°C° 0.4 mm 1 mps 647 mmHg 93%
    08:00 +12°C° 0.4 mm 1 mps 647 mmHg 91%
    09:00 +12°C° 0.4 mm 1 mps 648 mmHg 89%
    10:00 +12°C° 0.8 mm 2 mps 648 mmHg 89%
    11:00 +12°C° 0.8 mm 2 mps 648 mmHg 88%
    12:00 +13°C° 0.8 mm 2 mps 648 mmHg 88%
    13:00 +12°C° 0.6 mm 2 mps 647 mmHg 89%
    14:00 +12°C° 0.6 mm 2 mps 647 mmHg 91%
    15:00 +10°C° 0.6 mm 2 mps 647 mmHg 92%
    16:00 +10°C° 0.2 mm 2 mps 647 mmHg 92%
    17:00 +10°C° 0.2 mm 2 mps 647 mmHg 92%
    18:00 +10°C° 0.2 mm 1 mps 647 mmHg 92%
    19:00 +10°C° 0.1 mm 1 mps 647 mmHg 93%
    20:00 +9°C° 0.1 mm 1 mps 648 mmHg 94%
    21:00 +9°C° 0.1 mm 1 mps 648 mmHg 95%
    22:00 +8°C° 0 mm 1 mps 648 mmHg 95%
    23:00 +7°C° 0 mm 1 mps 647 mmHg 95%

    8 June, Monday

    Time Temperature Precipitation Wind Pressure Humidity
    00:00 +7°C° 0 mm 1 mps 647 mmHg 96%
    01:00 +7°C° 0 mm 1 mps 647 mmHg 96%
    02:00 +6°C° 0 mm 1 mps 647 mmHg 96%
    03:00 +6°C° 0 mm 1 mps 647 mmHg 96%
    04:00 +7°C° 0 mm 1 mps 647 mmHg 95%
    05:00 +7°C° 0 mm 1 mps 647 mmHg 94%
    06:00 +8°C° 0 mm 1 mps 647 mmHg 93%
    07:00 +8°C° 0 mm 1 mps 647 mmHg 93%
    08:00 +8°C° 0 mm 1 mps 647 mmHg 92%
    09:00 +8°C° 0 mm 1 mps 647 mmHg 91%
    10:00 +9°C° 0.3 mm 1 mps 647 mmHg 90%
    11:00 +8°C° 0.3 mm 2 mps 647 mmHg 88%
    12:00 +9°C° 0.3 mm 2 mps 647 mmHg 87%
    13:00 +9°C° 0.6 mm 2 mps 648 mmHg 86%
    14:00 +10°C° 0.6 mm 2 mps 648 mmHg 84%
    15:00 +11°C° 0.6 mm 1 mps 648 mmHg 83%
    16:00 +11°C° 0.5 mm 1 mps 648 mmHg 86%
    17:00 +10°C° 0.5 mm 1 mps 648 mmHg 89%
    18:00 +10°C° 0.5 mm 1 mps 648 mmHg 92%
    19:00 +9°C° 0.1 mm 1 mps 648 mmHg 94%
    20:00 +8°C° 0.1 mm 1 mps 649 mmHg 95%
    21:00 +7°C° 0.1 mm 1 mps 649 mmHg 97%
    22:00 +7°C° 0 mm 1 mps 649 mmHg 97%
    23:00 +6°C° 0 mm 1 mps 649 mmHg 96%

    9 June, Tuesday

    Time Temperature Precipitation Wind Pressure Humidity
    00:00 +6°C° 0 mm 1 mps 649 mmHg 96%
    01:00 +6°C° 0 mm 1 mps 649 mmHg 96%
    02:00 +6°C° 0 mm 1 mps 649 mmHg 96%
    03:00 +6°C° 0 mm 1 mps 649 mmHg 96%
    04:00 +7°C° 0 mm 1 mps 649 mmHg 96%
    05:00 +7°C° 0 mm 1 mps 650 mmHg 95%
    06:00 +8°C° 0 mm 1 mps 650 mmHg 94%
    07:00 +9°C° 0.2 mm 1 mps 650 mmHg 91%
    08:00 +10°C° 0.2 mm 1 mps 651 mmHg 88%
    09:00 +11°C° 0.2 mm 1 mps 651 mmHg 85%
    10:00 +10°C° 0.6 mm 2 mps 651 mmHg 84%
    11:00 +12°C° 0.6 mm 2 mps 651 mmHg 83%
    12:00 +12°C° 0.6 mm 2 mps 651 mmHg 82%
    13:00 +12°C° 0.9 mm 2 mps 651 mmHg 83%
    14:00 +12°C° 0.9 mm 2 mps 651 mmHg 84%
    15:00 +12°C° 0.9 mm 2 mps 650 mmHg 85%
    16:00 +10°C° 0.8 mm 2 mps 651 mmHg 88%
    17:00 +11°C° 0.8 mm 1 mps 651 mmHg 90%
    18:00 +10°C° 0.8 mm 1 mps 651 mmHg 92%
    19:00 +9°C° 0.1 mm 1 mps 651 mmHg 93%
    20:00 +8°C° 0.1 mm 1 mps 651 mmHg 95%
    21:00 +7°C° 0.1 mm 1 mps 651 mmHg 96%
    22:00 +6°C° 0 mm 0 mps 651 mmHg 96%
    23:00 +6°C° 0 mm 0 mps 651 mmHg 95%
    Show more